RH
29 30 34 31 32 35 39 38 35 39 39 39 45 43 40 36 31 30 23 19 18 16 15 10 9 15 21 26 32 36 43 43 41 41 41 54 85 89 96 88 97 100 95 98
44 40 48 48 44 39 39 37 37 40 42 43 42 34 33 28 24 20 16 15 15 11 5 7 11 14 24 29 28 16 11 12 37 40 29 35 44 66 73 81 58 97 95 80
50 40 48 58 55 45 43 45 50 47 44 47 37 29 27 22 17 13 12 13 10 8 8 8 11 13 20 23 25 23 22 18 20 22 16 24 29 37 37 35 32 23 37 71
62 56 55 63 54 46 47 49 43 44 46 41 30 25 17 15 12 11 14 11 8 10 9 9 13 16 23 22 20 15 10 11 17 16 10 10 27 39 44 32 16 26 24 50
72 68 66 57 44 54 47 43 45 45 40 30 24 17 13 13 14 16 15 12 10 9 8 11 17 23 22 15 12 14 13 11 11 10 10 10 10 15 21 37 30 44 43 60
65 47 43 46 59 50 42 41 42 37 32 24 20 16 13 9 17 22 22 23 19 11 12 15 18 16 12 15 17 16 16 15 13 12 11 11 11 12 13 14 24 28 44 56
68 62 64 62 48 41 36 33 32 26 21 16 12 15 13 8 12 26 30 27 20 14 20 17 17 22 24 23 21 17 14 13 13 13 14 17 18 17 15 16 15 15 16 17
66 70 64 51 43 37 31 27 28 23 18 17 8 8 10 16 19 27 32 28 21 26 22 22 25 33 35 33 26 21 17 16 18 20 21 24 34 27 23 25 27 29 29 27
65 69 54 43 34 28 23 18 26 23 19 16 10 8 9 14 29 36 39 32 32 32 31 40 42 36 33 30 29 21 17 16 18 20 20 22 23 28 39 32 24 21 26 28
63 61 50 40 30 23 19 23 26 28 23 20 11 10 17 18 41 52 52 47 44 39 38 47 43 33 39 37 27 20 17 19 16 14 13 18 20 20 13 6 6 6 8 16
68 60 50 40 32 28 24 22 28 42 41 47 37 18 12 27 42 54 57 54 48 49 54 52 46 42 38 32 28 23 20 16 16 15 16 18 9 8 7 7 7 10 16 22
76 65 48 45 35 32 29 32 35 38 53 50 50 25 28 27 31 41 61 59 64 47 48 49 44 46 42 29 34 18 20 22 18 18 18 10 10 11 10 8 7 8 19 29
92 73 69 58 49 50 44 51 51 55 66 41 45 30 32 31 38 58 72 66 51 45 45 50 46 39 32 36 29 23 25 23 19 16 11 12 13 11 10 9 13 28 40 53
98 74 74 67 69 54 64 73 73 75 60 46 39 34 26 41 59 78 71 58 47 46 52 55 49 40 36 47 32 30 25 21 17 13 14 13 13 12 12 15 24 35 44 57
80 71 64 56 64 53 44 58 81 72 56 55 28 46 29 70 72 75 62 39 50 59 66 49 33 47 47 45 37 33 27 21 14 14 16 18 15 14 15 30 41 45 60 46
92 70 83 65 56 53 47 36 65 64 64 59 44 40 64 86 73 58 50 68 83 78 62 40 45 74 63 53 45 31 26 22 19 20 20 19 21 22 40 79 56 48 44 39
95 91 74 67 64 55 56 30 69 79 70 65 70 51 90 55 40 56 85 87 78 71 63 60 71 90 73 60 40 29 26 24 25 26 30 31 35 43 50 46 38 42 40 39
87 67 64 70 92 82 33 48 66 72 63 71 65 52 56 60 42 49 81 86 79 67 71 91 93 86 68 50 38 33 30 29 32 36 40 46 53 61 59 49 39 42 39 36
49 63 79 98 98 90 60 44 60 86 63 73 57 45 61 62 87 72 86 65 58 82 97 97 99 80 62 59 51 42 40 38 46 58 55 55 57 66 64 49 47 45 40 36
97 81 81 75 83 66 37 64 60 79 64 52 43 43 61 86 100 95 81 82 97 91 95 100 100 84 87 76 71 70 63 59 64 61 51 54 64 62 63 55 49 45 45 44
84 92 88 94 100 98 91 84 84 75 60 52 45 44 66 90 97 86 65 55 86 100 100 100 99 92 94 93 82 70 71 68 61 54 52 56 67 59 62 58 57 65 51 66
76 89 100 100 100 95 80 78 66 60 68 88 90 82 93 86 59 51 72 100 100 100 100 99 98 95 96 91 89 90 76 67 65 62 58 72 74 65 65 62 82 94 95 96
84 72 69 60 65 68 66 57 61 68 91 99 86 75 61 49 63 87 100 100 100 100 100 99 98 100 100 100 92 76 70 65 70 69 81 84 64 64 59 80 86 74 84 75
69 53 58 82 72 60 82 92 96 93 85 80 56 45 56 93 100 100 98 97 92 83 83 88 96 100 100 89 75 70 77 77 71 72 78 75 63 52 36 45 65 84 76 74
81 78 64 54 74 83 94 100 92 80 68 58 52 69 88 100 96 90 85 73 73 70 76 88 85 75 68 70 78 78 64 56 55 69 63 52 39 25 22 25 22 24 71 97
100 60 73 90 98 100 85 64 52 54 62 70 78 88 92 81 73 67 57 59 67 68 64 59 62 61 58 53 48 48 49 47 50 56 56 36 19 15 25 34 52 90 48 21
Wind_Speed
40 41 38 40 42 44 46 49 49 46 48 48 43 37 35 37 34 31 31 31 33 35 36 36 33 29 26 25 24 21 20 24 28 32 33 34 38 47 31 30 32 36 36 37
48 49 44 46 46 48 51 50 50 49 49 44 38 35 35 36 33 33 33 32 33 34 33 29 23 21 21 18 14 13 16 19 25 29 31 31 36 36 36 36 35 36 33 43
52 56 49 48 49 49 50 48 45 45 43 41 40 35 37 35 35 35 33 31 31 29 26 24 21 19 19 19 19 20 22 25 29 33 38 35 35 36 36 39 41 43 48 44
54 57 57 51 52 50 45 40 42 41 37 36 38 37 39 33 35 32 29 28 27 27 27 26 24 21 21 21 23 24 25 27 26 29 37 40 39 39 39 42 43 46 49 36
57 53 48 51 50 44 42 38 37 35 34 38 40 38 38 32 30 29 28 27 29 29 29 27 25 23 24 26 25 28 32 34 34 35 38 41 44 47 48 48 49 50 50 49
56 54 52 52 45 39 37 34 32 34 37 44 40 37 39 38 29 29 29 29 29 28 28 26 26 27 28 30 33 36 39 40 41 42 44 45 47 50 53 54 54 53 53 54
54 54 50 43 39 39 36 35 37 40 44 42 44 36 37 40 34 30 30 31 30 28 26 26 25 29 33 33 36 37 39 42 42 44 46 48 50 51 53 55 57 58 59 61
51 49 46 42 41 39 38 39 40 43 43 41 45 43 42 34 35 32 32 31 29 28 29 31 34 38 41 44 44 43 40 40 41 44 46 47 47 51 52 53 55 58 60 61
44 44 41 42 39 39 39 45 36 41 42 43 44 41 38 37 34 33 34 31 31 33 35 36 40 44 46 49 48 44 43 42 39 39 43 46 49 51 50 54 52 52 53 55
44 44 44 41 43 43 42 38 42 42 42 41 41 38 40 37 33 33 32 34 37 40 42 43 46 47 46 48 48 44 41 37 41 44 46 48 49 47 47 46 49 54 56 58
43 42 39 41 41 35 37 39 39 38 38 37 38 40 41 36 36 36 38 39 39 42 47 49 46 48 50 51 46 40 37 44 47 46 48 44 41 42 46 50 56 58 59 59
37 40 43 35 37 37 38 37 37 37 37 36 37 39 39 35 38 40 38 39 42 49 45 49 50 51 53 53 43 41 43 45 49 47 47 41 44 53 59 60 59 62 63 65
38 40 41 40 40 36 33 33 36 36 37 40 42 43 39 39 38 39 39 42 48 48 50 51 50 53 50 50 42 43 45 46 48 47 45 46 56 60 61 63 67 67 66 62
39 41 39 37 38 40 36 35 38 40 45 42 46 39 41 37 37 39 44 52 54 56 55 53 56 57 53 50 46 45 44 44 45 47 49 56 58 62 65 65 67 64 64 58
35 36 39 43 42 42 41 38 43 48 47 46 44 42 38 40 38 46 52 54 56 56 55 54 56 55 53 49 48 48 46 45 45 52 56 61 65 63 65 60 55 56 56 57
50 49 46 44 51 53 50 47 50 48 49 47 42 43 37 42 50 51 51 55 57 54 56 57 56 54 52 52 51 50 47 49 52 56 59 63 68 68 59 50 51 54 55 56
54 51 54 51 50 52 55 51 48 49 52 48 46 40 43 50 51 50 52 56 57 57 60 58 57 57 54 54 52 50 51 53 56 61 63 64 62 59 57 55 53 53 57 56
53 47 51 47 45 52 52 48 48 51 50 42 51 50 49 56 57 58 57 58 62 63 61 62 58 54 53 53 51 53 56 58 62 63 61 57 56 55 54 54 54 55 56 56
51 51 52 47 53 54 51 52 51 55 55 57 57 56 54 59 56 59 53 56 57 59 66 63 56 55 54 52 53 57 60 65 64 60 58 58 56 51 51 54 54 51 50 51
46 53 52 53 60 65 58 63 64 62 68 58 58 57 56 53 53 55 55 57 59 62 65 59 55 52 51 55 58 63 66 66 63 60 60 56 51 51 52 54 50 45 43 45
56 57 57 57 61 65 62 63 63 68 69 65 58 56 56 55 55 56 55 56 61 65 58 50 49 52 56 59 64 66 67 66 62 60 58 57 53 53 53 51 45 40 40 43
58 55 55 61 69 72 63 63 65 61 54 52 51 56 55 54 52 50 51 54 55 53 52 53 56 58 61 64 67 68 71 64 61 59 56 53 52 52 46 45 43 42 44 45
63 62 62 62 66 68 66 67 65 57 49 51 54 54 54 54 52 54 55 53 56 58 55 57 60 64 67 69 69 68 64 64 60 58 52 51 47 44 43 44 44 47 48 45
62 60 61 56 54 55 53 49 49 53 55 53 51 52 52 54 56 57 56 55 56 59 62 65 67 69 70 69 68 66 59 55 53 53 48 45 44 42 42 43 43 43 45 47
53 47 51 53 52 53 53 52 53 55 56 56 54 54 57 61 62 56 54 58 61 64 67 69 70 69 67 64 59 55 51 48 46 41 37 37 37 37 38 38 38 36 36 35
57 51 49 46 44 47 50 52 51 50 50 52 54 54 53 54 57 59 62 66 68 69 68 65 63 61 58 55 52 49 45 42 39 36 35 33 34 32 29 27 27 31 31 33
Wind_Direction
250 256 260 261 264 268 270 268 273 277 278 275 280 281 279 280 281 280 279 280 282 284 285 284 283 282 285 286 286 287 296 302 308 307 310 309 293 304 294 299 299 305 310 299
257 259 262 265 265 266 269 271 276 277 275 276 278 281 280 281 282 282 282 282 284 284 282 278 280 288 289 288 289 304 312 321 312 313 318 311 312 315 317 322 318 300 309 309
252 255 262 268 267 267 273 274 273 273 275 276 276 279 274 279 281 280 281 282 284 283 277 279 282 283 287 283 274 281 287 300 303 305 310 307 306 306 304 304 301 300 301 302
250 254 260 262 264 271 272 271 269 271 273 273 275 272 280 276 277 276 276 279 280 278 279 280 280 283 281 282 281 285 293 301 300 301 309 309 301 295 291 286 291 289 294 289
255 260 259 260 268 266 266 266 268 269 267 267 269 275 277 279 275 272 272 276 277 279 281 278 276 276 277 278 285 297 307 307 304 304 302 297 296 297 294 291 292 290 289 284
253 253 256 261 260 260 261 262 264 264 266 268 271 274 273 276 270 267 271 277 281 280 276 273 275 276 278 286 294 299 301 301 298 297 296 293 292 293 290 290 292 293 292 289
255 256 255 252 251 255 260 262 263 264 264 270 272 268 270 278 273 269 275 279 278 270 265 265 269 281 284 289 297 298 296 294 292 291 290 288 287 285 285 287 288 290 292 295
246 243 246 249 253 256 256 255 253 257 261 263 271 271 270 270 270 273 276 274 268 261 262 264 273 285 289 293 297 299 293 291 288 287 286 284 284 281 283 286 290 292 294 296
243 240 243 248 247 251 253 255 257 255 259 260 265 267 273 271 275 276 273 265 262 260 264 277 290 296 297 297 302 304 303 298 293 294 294 292 291 287 282 288 293 294 295 296
233 237 242 244 249 249 254 250 250 251 256 261 269 272 274 275 271 265 266 263 262 265 269 283 294 297 299 305 305 298 298 302 308 309 301 293 291 293 296 300 303 302 300 299
232 235 239 245 249 249 247 249 252 255 256 262 266 269 271 272 271 270 266 262 264 272 281 286 291 298 301 302 298 299 304 308 311 310 298 292 293 301 301 301 300 295 293 293
231 230 239 238 241 241 243 246 251 256 254 256 257 259 269 274 275 271 265 266 274 284 285 289 294 296 298 297 293 301 303 307 310 300 291 294 304 306 303 302 298 291 290 291
227 231 235 238 242 248 260 261 255 251 254 257 258 267 278 276 275 267 266 275 285 289 288 289 292 295 293 289 287 296 301 303 304 298 293 296 304 305 298 290 288 292 294 297
223 231 239 252 256 252 255 259 256 253 255 263 265 272 279 275 269 263 270 284 288 292 291 291 293 291 286 282 286 292 297 298 296 292 292 299 298 295 294 295 293 292 291 290
241 245 255 259 262 262 262 261 254 253 258 263 270 273 277 263 263 277 280 286 287 286 288 289 285 279 283 280 285 289 287 289 291 292 294 293 291 293 292 291 289 288 287 290
251 258 261 257 257 260 262 266 260 262 259 268 271 272 272 269 272 277 281 280 281 284 283 283 281 276 281 279 285 284 282 283 278 288 291 292 292 294 296 290 290 291 292 291
260 270 270 263 258 256 255 267 267 264 263 268 268 277 271 274 281 283 277 274 275 280 279 283 281 274 277 280 281 279 280 280 284 289 293 296 298 297 294 292 290 288 288 289
260 258 257 254 253 253 263 258 261 258 256 266 278 281 277 280 280 279 276 280 280 280 276 278 273 273 276 276 279 281 284 287 287 289 294 296 295 289 289 290 287 286 288 290
251 250 253 253 253 260 256 260 262 255 253 268 278 280 277 278 281 279 278 278 277 277 276 270 267 272 273 276 284 284 284 283 286 293 294 292 289 286 287 289 287 287 287 286
255 256 258 258 256 262 264 259 263 264 266 276 279 280 279 275 271 274 275 279 275 273 269 268 271 272 272 278 279 281 282 286 291 294 295 292 287 286 289 289 286 285 281 281
256 255 257 260 258 257 257 257 267 270 275 280 280 274 270 269 272 279 283 278 274 268 263 265 269 271 278 278 280 281 285 289 291 292 289 285 284 285 286 286 284 278 282 280
257 251 251 254 256 263 267 274 274 277 274 271 273 271 274 278 282 280 280 270 264 268 273 274 276 277 276 276 278 281 284 287 288 287 281 282 286 285 283 279 277 279 279 279
250 256 264 261 261 264 269 269 269 266 263 268 272 281 285 283 280 279 274 269 270 278 282 282 279 275 276 278 280 283 286 287 285 282 283 287 284 281 278 275 274 276 278 281
258 259 256 257 261 264 268 263 261 260 262 268 280 282 282 279 274 274 275 278 282 284 283 280 279 279 281 283 285 285 285 287 286 283 282 282 279 276 275 274 274 274 277 280
247 254 256 255 256 261 261 262 266 270 277 284 282 277 275 274 277 277 277 276 273 272 273 276 278 281 281 281 281 282 284 284 283 281 276 274 275 277 279 282 283 284 285 285
248 257 256 260 257 257 269 277 280 280 277 272 270 270 270 270 271 271 271 272 274 278 281 283 282 282 282 282 282 281 281 281 279 277 273 274 276 283 286 286 282 285 286 287